Weather History for KBIE - February, 2011

Change the Weather History Date:

Monday, February 7, 2011

  Actual Average (KLNK) Record (KLNK)
Temperature  
Mean Temperature 21 °F 27 °F  
Max Temperature 28 °F 38 °F 71 °F (1987)
Min Temperature 14 °F 16 °F -18 °F (1895)
Degree Days  
Heating Degree Days 44 38  
Month to date heating degree days 272  
Since 1 July heating degree days 3969  
Cooling Degree Days 0 0  
Month to date cooling degree days 0  
Year to date cooling degree days 0  
Moisture  
Dew Point 13 °F    
Average Humidity 75    
Maximum Humidity 90    
Minimum Humidity 67    
Precipitation  
Precipitation 0.00 in 0.02 in 0.28 in (1928)
Month to date precipitation 0.18  
Year to date precipitation 0.82  
Snow  
Snow 0.00 in 0.20 in - ()
Month to date snowfall 1.5  
Since 1 July snowfall 15.6  
Snow Depth -    
Sea Level Pressure  
Sea Level Pressure 30.21 in    
Wind  
Wind Speed 15 mph (NNW)    
Max Wind Speed 24 mph    
Max Gust Speed 24 mph    
Visibility 10 miles    
Events Snow    
T = Trace of Precipitation, MM = Missing Value Source: NWS Daily Summary

Daily Weather History Graph

Daily Weather History Graph

Search for Another Location

Airport or City:

Trip Planner

Search our weather history database for the weather conditions in past years. The results will help you decide how hot, cold, wet, or windy it might be!

Date:

Astronomy

Feb. 07, 2011 Rise Set
Actual Time 7:30 AM CST 5:52 PM CST
Civil Twilight 7:01 AM CST 6:21 PM CST
Nautical Twilight 6:29 AM CST 6:53 PM CST
Astronomical Twilight 5:57 AM CST 7:25 PM CST
Moon 9:12 AM CST (2/7) 10:36 PM CST (2/7)
Length of Visible Light 11h 19m
Length of Day
10h 22m
Waxing Crescent, 19% of the Moon is Illuminated
Feb 7
Waxing Crescent
Feb 11
First Quarter
Feb 18
Full
Feb 24
Last Quarter
Mar 4
New

Hourly Weather History & Observations

Time (CST) Temp. Windchill Dew Point Humidity Pressure Visibility Wind Dir Wind Speed Gust Speed Precip Events Conditions
12:10 AM 28.0 °F 16.1 °F 24.4 °F 86% 30.21 in 10.0 mi North 16.1 mph - N/A   Overcast
12:30 AM 27.9 °F 14.7 °F 23.9 °F 85% 30.22 in 10.0 mi North 19.6 mph - N/A   Overcast
12:50 AM 27.5 °F 15.0 °F 23.9 °F 86% 30.22 in 7.0 mi North 17.3 mph 24.2 mph N/A Snow Light Snow
1:10 AM 27.0 °F 14.7 °F 23.0 °F 85% 30.22 in 10.0 mi North 16.1 mph - N/A   Overcast
1:30 AM 26.6 °F 14.7 °F 23.0 °F 86% 30.22 in 10.0 mi North 15.0 mph - N/A   Overcast
1:50 AM 26.6 °F 15.7 °F 23.9 °F 90% 30.22 in 10.0 mi North 12.7 mph - N/A   Overcast
2:10 AM 26.8 °F 15.9 °F 23.7 °F 88% 30.22 in 10.0 mi North 12.7 mph - N/A   Overcast
2:30 AM 26.6 °F 14.3 °F 22.8 °F 86% 30.22 in 10.0 mi North 16.1 mph - N/A   Overcast
2:50 AM 26.4 °F 12.5 °F 21.2 °F 81% 30.23 in 10.0 mi NNW 20.7 mph - N/A   Overcast
3:10 AM 25.0 °F 12.2 °F 20.7 °F 84% 30.23 in 10.0 mi North 16.1 mph - N/A   Overcast
3:30 AM 23.9 °F 8.1 °F 20.1 °F 85% 30.24 in 10.0 mi North 24.2 mph - N/A   Overcast
3:50 AM 22.6 °F 7.9 °F 19.2 °F 87% 30.23 in 10.0 mi North 19.6 mph - N/A   Overcast
4:10 AM 22.5 °F 7.6 °F 18.5 °F 85% 30.23 in 10.0 mi North 19.6 mph - N/A   Overcast
4:30 AM 21.0 °F 5.7 °F 15.3 °F 78% 30.23 in 10.0 mi NNW 19.6 mph - N/A   Overcast
4:50 AM 19.6 °F 3.5 °F 12.4 °F 74% 30.24 in 10.0 mi NNW 20.7 mph - N/A   Mostly Cloudy
5:10 AM 18.5 °F 4.9 °F 12.4 °F 77% 30.24 in 10.0 mi NNW 13.8 mph - N/A   Scattered Clouds
5:30 AM 18.1 °F 2.4 °F 11.5 °F 75% 30.24 in 10.0 mi NNW 18.4 mph - N/A   Clear
5:50 AM 17.4 °F 1.9 °F 10.9 °F 76% 30.25 in 10.0 mi NNW 17.3 mph 24.2 mph N/A   Clear
6:10 AM 16.7 °F 1.5 °F 10.8 °F 77% 30.24 in 10.0 mi NNW 16.1 mph - N/A   Clear
6:30 AM 16.5 °F 1.3 °F 10.9 °F 79% 30.25 in 10.0 mi NNW 16.1 mph 21.9 mph N/A   Clear
6:50 AM 15.8 °F 0.3 °F 10.2 °F 79% 30.25 in 10.0 mi NNW 16.1 mph 20.7 mph N/A   Clear
7:10 AM 15.4 °F 3.0 °F 10.0 °F 79% 30.24 in 10.0 mi NNW 10.4 mph - N/A   Clear
7:30 AM 14.9 °F 3.1 °F 10.0 °F 81% 30.24 in 10.0 mi NNW 9.2 mph - N/A   Clear
7:50 AM 14.0 °F -0.2 °F 9.0 °F 80% 30.24 in 10.0 mi NNW 12.7 mph - N/A   Clear
8:10 AM 14.0 °F -2.0 °F 7.9 °F 77% 30.24 in 10.0 mi NNW 16.1 mph 23.0 mph N/A   Clear
8:30 AM 14.0 °F -3.0 °F 7.7 °F 76% 30.23 in 10.0 mi North 18.4 mph - N/A   Clear
8:50 AM 14.4 °F -2.0 °F 7.7 °F 75% 30.25 in 10.0 mi North 17.3 mph - N/A   Clear
9:10 AM 14.9 °F 0.3 °F 8.1 °F 74% 30.25 in 10.0 mi North 13.8 mph - N/A   Clear
9:30 AM 15.4 °F 1.6 °F 8.6 °F 74% 30.25 in 10.0 mi NNW 12.7 mph - N/A   Clear
9:50 AM 15.8 °F 0.9 °F 8.8 °F 74% 30.25 in 10.0 mi NNW 15.0 mph - N/A   Clear
10:10 AM 16.3 °F 2.1 °F 8.6 °F 72% 30.25 in 10.0 mi NNW 13.8 mph - N/A   Clear
10:30 AM 16.7 °F 3.8 °F 8.4 °F 70% 30.24 in 10.0 mi North 11.5 mph - N/A   Clear
10:50 AM 17.1 °F 5.0 °F 8.8 °F 70% 30.25 in 10.0 mi NNW 10.4 mph - N/A   Clear
11:10 AM 17.2 °F 6.0 °F 8.6 °F 69% 30.24 in 10.0 mi North 9.2 mph - N/A   Clear
11:30 AM 17.6 °F 5.7 °F 9.1 °F 69% 30.24 in 10.0 mi NNW 10.4 mph - N/A   Clear
11:50 AM 18.1 °F 7.9 °F 9.3 °F 68% 30.22 in 10.0 mi NW 8.1 mph - N/A   Clear
12:10 PM 18.9 °F 8.8 °F 10.2 °F 69% 30.21 in 10.0 mi NNW 8.1 mph - N/A   Clear
12:30 PM 19.2 °F 9.3 °F 10.2 °F 68% 30.21 in 10.0 mi North 8.1 mph - N/A   Clear
12:50 PM 19.9 °F 11.1 °F 10.6 °F 67% 30.20 in 10.0 mi NW 6.9 mph - N/A   Clear
1:10 PM 20.1 °F 9.5 °F 10.8 °F 67% 30.20 in 10.0 mi NW 9.2 mph - N/A   Scattered Clouds
1:30 PM 21.0 °F 9.3 °F 12.0 °F 68% 30.20 in 10.0 mi NNW 11.5 mph - N/A   Scattered Clouds
1:50 PM 20.8 °F 9.0 °F 11.5 °F 67% 30.18 in 10.0 mi NNW 11.5 mph - N/A   Scattered Clouds
2:10 PM 20.5 °F 9.2 °F 11.7 °F 69% 30.18 in 10.0 mi NNW 10.4 mph - N/A   Clear
2:30 PM 20.7 °F 11.9 °F 11.1 °F 67% 30.17 in 10.0 mi NW 6.9 mph - N/A   Scattered Clouds
2:50 PM 20.7 °F 11.9 °F 11.5 °F 68% 30.16 in 10.0 mi North 6.9 mph - N/A   Scattered Clouds
3:10 PM 20.7 °F 11.0 °F 11.3 °F 67% 30.16 in 10.0 mi NNW 8.1 mph - N/A   Scattered Clouds
3:30 PM 21.4 °F 11.1 °F 12.4 °F 68% 30.17 in 10.0 mi NNW 9.2 mph - N/A   Mostly Cloudy
3:50 PM 20.1 °F 12.3 °F 12.0 °F 71% 30.16 in 10.0 mi North 5.8 mph - N/A   Scattered Clouds
4:10 PM 20.3 °F 13.8 °F 11.5 °F 69% 30.17 in 10.0 mi North 4.6 mph - N/A   Scattered Clouds
4:30 PM 19.9 °F 10.1 °F 10.9 °F 68% 30.16 in 10.0 mi North 8.1 mph - N/A   Scattered Clouds
4:50 PM 19.4 °F 9.5 °F 11.1 °F 70% 30.16 in 10.0 mi North 8.1 mph - N/A   Mostly Cloudy
5:10 PM 19.4 °F 9.5 °F 10.8 °F 69% 30.16 in 10.0 mi North 8.1 mph - N/A   Overcast
5:30 PM 19.4 °F 10.4 °F 10.9 °F 70% 30.17 in 10.0 mi NNE 6.9 mph - N/A   Overcast
5:50 PM 18.9 °F 8.0 °F 10.8 °F 71% 30.16 in 10.0 mi NE 9.2 mph - N/A   Overcast
6:10 PM 16.7 °F 3.8 °F 10.0 °F 75% 30.18 in 10.0 mi NE 11.5 mph - N/A   Overcast
6:30 PM 15.8 °F 2.1 °F 9.5 °F 76% 30.18 in 10.0 mi NE 12.7 mph - N/A   Overcast
6:50 PM 14.9 °F 2.3 °F 7.9 °F 74% 30.18 in 10.0 mi NE 10.4 mph - N/A   Overcast
7:10 PM 14.0 °F 2.0 °F 7.7 °F 76% 30.19 in 10.0 mi NE 9.2 mph - N/A   Overcast
7:30 PM 13.8 °F 1.8 °F 7.5 °F 76% 30.22 in 10.0 mi NE 9.2 mph - N/A   Overcast
7:50 PM 13.1 °F -2.6 °F 7.0 °F 77% 30.23 in 10.0 mi NNE 15.0 mph - N/A   Overcast
8:10 PM 12.2 °F -2.5 °F 5.9 °F 76% 30.23 in 10.0 mi NNE 12.7 mph - N/A   Overcast
8:30 PM 11.8 °F -4.2 °F 4.3 °F 72% 30.24 in 10.0 mi NNE 15.0 mph 19.6 mph N/A   Overcast
8:50 PM 11.3 °F -2.2 °F 4.8 °F 75% 30.25 in 10.0 mi NNE 10.4 mph - N/A   Overcast
9:10 PM 11.1 °F -2.4 °F 2.7 °F 69% 30.26 in 10.0 mi NNE 10.4 mph - N/A   Overcast
9:30 PM 10.4 °F -4.1 °F 1.9 °F 69% 30.26 in 10.0 mi NE 11.5 mph - N/A   Overcast
9:50 PM 10.0 °F -5.9 °F 2.3 °F 71% 30.28 in 10.0 mi NNE 13.8 mph 17.3 mph N/A   Overcast
10:10 PM 9.5 °F -6.6 °F 2.5 °F 73% 30.28 in 10.0 mi NNE 13.8 mph - N/A   Overcast
10:30 PM 8.4 °F -8.6 °F 1.4 °F 73% 30.29 in 10.0 mi NNE 15.0 mph 20.7 mph N/A   Overcast
10:50 PM 7.5 °F -9.7 °F 0.3 °F 72% 30.30 in 10.0 mi NNE 15.0 mph 23.0 mph N/A   Overcast
11:10 PM 6.8 °F -11.3 °F -0.4 °F 72% 30.32 in 10.0 mi NNE 16.1 mph 23.0 mph N/A   Overcast
11:30 PM 6.6 °F -9.5 °F -0.4 °F 73% 30.32 in 10.0 mi NNE 12.7 mph 17.3 mph N/A   Overcast
11:50 PM 5.9 °F -13.0 °F -1.7 °F 71% 30.33 in 10.0 mi NNE 17.3 mph 23.0 mph N/A   Overcast